Location: ????
(33.1659°N, 35.6604°E)
Time: 08:02:39
(UTC+00:00)

Meteor 2-5 Rocket - Pass Details

Date: 20 September 2019
Orbit: 834 x 911 km, 81.2° (Epoch: 15 October)

Event Time Altitude Azimuth Distance (km) Brightness Sun altitude
Rises 17:58:19 0° 349° (N) 3,499 7.3 -29.5°
Reaches altitude 10° 18:00:46 10° 348° (NNW) 2,566 6.6 -30.0°
Enters shadow 18:06:20 72° 289° (WNW) 948 3.9 -31.1°
